Year,Month,Day,Hour,Minute,Value (Times are PST for temperature in C)
2015,10,16,00,00,7.90
2015,10,16,00,01,7.80
2015,10,16,00,02,7.80
2015,10,16,00,03,7.80
2015,10,16,00,04,7.80
2015,10,16,00,05,7.70
2015,10,16,00,06,7.70
2015,10,16,00,07,7.70
2015,10,16,00,08,7.70
2015,10,16,00,09,7.70
2015,10,16,00,10,7.60
2015,10,16,00,11,7.60
2015,10,16,00,12,7.60
2015,10,16,00,13,7.60
2015,10,16,00,14,7.60
2015,10,16,00,15,7.50
2015,10,16,00,16,7.50
2015,10,16,00,17,7.40
2015,10,16,00,18,7.40
2015,10,16,00,19,7.40
2015,10,16,00,20,7.40
2015,10,16,00,21,7.40
2015,10,16,00,22,7.40
2015,10,16,00,23,7.40
2015,10,16,00,24,7.30
2015,10,16,00,25,7.30
2015,10,16,00,26,7.30
2015,10,16,00,27,7.30
2015,10,16,00,28,7.30
2015,10,16,00,29,7.30
2015,10,16,00,30,7.30
2015,10,16,00,31,7.30
2015,10,16,00,32,7.30
2015,10,16,00,33,7.30
2015,10,16,00,34,7.30
2015,10,16,00,35,7.30
2015,10,16,00,36,7.30
2015,10,16,00,37,7.30
2015,10,16,00,38,7.30
2015,10,16,00,39,7.30
2015,10,16,00,40,7.30
2015,10,16,00,41,7.30
2015,10,16,00,42,7.30
2015,10,16,00,43,7.30
2015,10,16,00,44,7.30
2015,10,16,00,45,7.30
2015,10,16,00,46,7.40
2015,10,16,00,47,7.40
2015,10,16,00,48,7.40
2015,10,16,00,49,7.40
2015,10,16,00,50,7.40
2015,10,16,00,51,7.40
2015,10,16,00,52,7.40
2015,10,16,00,53,7.30
2015,10,16,00,54,7.30
2015,10,16,00,55,7.30
2015,10,16,00,56,7.30
2015,10,16,00,57,7.30
2015,10,16,00,58,7.30
2015,10,16,00,59,7.30
2015,10,16,01,00,7.30
2015,10,16,01,01,7.20
2015,10,16,01,02,7.20
2015,10,16,01,03,7.20
2015,10,16,01,04,7.20
2015,10,16,01,05,7.10
2015,10,16,01,06,7.10
2015,10,16,01,07,7.10
2015,10,16,01,08,7.00
2015,10,16,01,09,7.00
2015,10,16,01,10,7.00
2015,10,16,01,11,6.90
2015,10,16,01,12,6.90
2015,10,16,01,13,6.90
2015,10,16,01,14,6.90
2015,10,16,01,15,6.90
2015,10,16,01,16,6.90
2015,10,16,01,17,6.80
2015,10,16,01,18,6.80
2015,10,16,01,19,6.80
2015,10,16,01,20,6.80
2015,10,16,01,21,6.80
2015,10,16,01,22,6.80
2015,10,16,01,23,6.80
2015,10,16,01,24,6.80
2015,10,16,01,25,6.90
2015,10,16,01,26,6.90
2015,10,16,01,27,6.90
2015,10,16,01,28,6.90
2015,10,16,01,29,6.90
2015,10,16,01,30,6.90
2015,10,16,01,31,6.80
2015,10,16,01,32,6.90
2015,10,16,01,33,6.90
2015,10,16,01,34,6.90
2015,10,16,01,35,6.90
2015,10,16,01,36,6.90
2015,10,16,01,37,6.80
2015,10,16,01,38,6.80
2015,10,16,01,39,6.80
2015,10,16,01,40,6.80
2015,10,16,01,41,6.70
2015,10,16,01,42,6.70
2015,10,16,01,43,6.60
2015,10,16,01,44,6.60
2015,10,16,01,45,6.60
2015,10,16,01,46,6.50
2015,10,16,01,47,6.50
2015,10,16,01,48,6.40
2015,10,16,01,49,6.40
2015,10,16,01,50,6.40
2015,10,16,01,51,6.40
2015,10,16,01,52,6.40
2015,10,16,01,53,6.40
2015,10,16,01,54,6.40
2015,10,16,01,55,6.40
2015,10,16,01,56,6.30
2015,10,16,01,57,6.30
2015,10,16,01,58,6.30
2015,10,16,01,59,6.30
2015,10,16,02,00,6.40
2015,10,16,02,01,6.40
2015,10,16,02,02,6.50
2015,10,16,02,03,6.50
2015,10,16,02,04,6.60
2015,10,16,02,05,6.60
2015,10,16,02,06,6.60
2015,10,16,02,07,6.60
2015,10,16,02,08,6.60
2015,10,16,02,09,6.60
2015,10,16,02,10,6.60
2015,10,16,02,11,6.70
2015,10,16,02,12,6.70
2015,10,16,02,13,6.70
2015,10,16,02,14,6.60
2015,10,16,02,15,6.60
2015,10,16,02,16,6.60
2015,10,16,02,17,6.60
2015,10,16,02,18,6.60
2015,10,16,02,19,6.60
2015,10,16,02,20,6.50
2015,10,16,02,21,6.40
2015,10,16,02,22,6.40
2015,10,16,02,23,6.30
2015,10,16,02,24,6.30
2015,10,16,02,25,6.30
2015,10,16,02,26,6.30
2015,10,16,02,27,6.30
2015,10,16,02,28,6.30
2015,10,16,02,29,6.20
2015,10,16,02,30,6.20
2015,10,16,02,31,6.20
2015,10,16,02,32,6.10
2015,10,16,02,33,6.10
2015,10,16,02,34,6.10
2015,10,16,02,35,6.10
2015,10,16,02,36,6.10
2015,10,16,02,37,6.10
2015,10,16,02,38,6.00
2015,10,16,02,39,6.00
2015,10,16,02,40,6.00
2015,10,16,02,41,5.90
2015,10,16,02,42,5.90
2015,10,16,02,43,5.90
2015,10,16,02,44,5.90
2015,10,16,02,45,5.90
2015,10,16,02,46,5.90
2015,10,16,02,47,5.90
2015,10,16,02,48,5.90
2015,10,16,02,49,5.90
2015,10,16,02,50,5.90
2015,10,16,02,51,5.90
2015,10,16,02,52,5.90
2015,10,16,02,53,5.90
2015,10,16,02,54,5.90
2015,10,16,02,55,5.90
2015,10,16,02,56,5.90
2015,10,16,02,57,5.90
2015,10,16,02,58,5.90
2015,10,16,02,59,5.90
2015,10,16,03,00,6.00
2015,10,16,03,01,6.00
2015,10,16,03,02,6.00
2015,10,16,03,03,6.00
2015,10,16,03,04,6.00
2015,10,16,03,05,6.10
2015,10,16,03,06,6.00
2015,10,16,03,07,6.00
2015,10,16,03,08,6.00
2015,10,16,03,09,6.00
2015,10,16,03,10,5.90
2015,10,16,03,11,5.90
2015,10,16,03,12,5.90
2015,10,16,03,13,6.00
2015,10,16,03,14,6.00
2015,10,16,03,15,6.00
2015,10,16,03,16,6.00
2015,10,16,03,17,6.10
2015,10,16,03,18,6.10
2015,10,16,03,19,6.10
2015,10,16,03,20,6.10
2015,10,16,03,21,6.10
2015,10,16,03,22,6.10
2015,10,16,03,23,6.10
2015,10,16,03,24,6.00
2015,10,16,03,25,6.00
2015,10,16,03,26,5.90
2015,10,16,03,27,5.90
2015,10,16,03,28,5.90
2015,10,16,03,29,5.90
2015,10,16,03,30,5.90
2015,10,16,03,31,5.80
2015,10,16,03,32,5.80
2015,10,16,03,33,5.80
2015,10,16,03,34,5.80
2015,10,16,03,35,5.80
2015,10,16,03,36,5.80
2015,10,16,03,37,5.70
2015,10,16,03,38,5.70
2015,10,16,03,39,5.70
2015,10,16,03,40,5.70
2015,10,16,03,41,5.70
2015,10,16,03,42,5.70
2015,10,16,03,43,5.70
2015,10,16,03,44,5.70
2015,10,16,03,45,5.70
2015,10,16,03,46,5.70
2015,10,16,03,47,5.70
2015,10,16,03,48,5.70
2015,10,16,03,49,5.70
2015,10,16,03,50,5.70
2015,10,16,03,51,5.80
2015,10,16,03,52,5.80
2015,10,16,03,53,5.80
2015,10,16,03,54,5.80
2015,10,16,03,55,5.80
2015,10,16,03,56,5.80
2015,10,16,03,57,5.80
2015,10,16,03,58,5.80
2015,10,16,03,59,5.80
2015,10,16,04,00,5.80
2015,10,16,04,01,5.80
2015,10,16,04,02,5.80
2015,10,16,04,03,5.80
2015,10,16,04,04,5.80
2015,10,16,04,05,5.80
2015,10,16,04,06,5.80
2015,10,16,04,07,5.80
2015,10,16,04,08,5.80
2015,10,16,04,09,5.80
2015,10,16,04,10,5.70
2015,10,16,04,11,5.70
2015,10,16,04,12,5.60
2015,10,16,04,13,5.60
2015,10,16,04,14,5.60
2015,10,16,04,15,5.50
2015,10,16,04,16,5.50
2015,10,16,04,17,5.40
2015,10,16,04,18,5.40
2015,10,16,04,19,5.40
2015,10,16,04,20,5.30
2015,10,16,04,21,5.30
2015,10,16,04,22,5.30
2015,10,16,04,23,5.30
2015,10,16,04,24,5.20
2015,10,16,04,25,5.20
2015,10,16,04,26,5.20
2015,10,16,04,27,5.20
2015,10,16,04,28,5.20
2015,10,16,04,29,5.20
2015,10,16,04,30,5.20
2015,10,16,04,31,5.20
2015,10,16,04,32,5.10
2015,10,16,04,33,5.10
2015,10,16,04,34,5.10
2015,10,16,04,35,5.10
2015,10,16,04,36,5.10
2015,10,16,04,37,5.10
2015,10,16,04,38,5.10
2015,10,16,04,39,5.10
2015,10,16,04,40,5.10
2015,10,16,04,41,5.10
2015,10,16,04,42,5.10
2015,10,16,04,43,5.10
2015,10,16,04,44,5.10
2015,10,16,04,45,5.10
2015,10,16,04,46,5.10
2015,10,16,04,47,5.10
2015,10,16,04,48,5.10
2015,10,16,04,49,5.10
2015,10,16,04,50,5.10
2015,10,16,04,51,5.10
2015,10,16,04,52,5.10
2015,10,16,04,53,5.10
2015,10,16,04,54,5.10
2015,10,16,04,55,5.10
2015,10,16,04,56,5.10
2015,10,16,04,57,5.10
2015,10,16,04,58,5.10
2015,10,16,04,59,5.10
2015,10,16,05,00,5.10
2015,10,16,05,01,5.10
2015,10,16,05,02,5.10
2015,10,16,05,03,5.10
2015,10,16,05,04,5.10
2015,10,16,05,05,5.10
2015,10,16,05,06,5.10
2015,10,16,05,07,5.10
2015,10,16,05,08,5.20
2015,10,16,05,09,5.20
2015,10,16,05,10,5.20
2015,10,16,05,11,5.20
2015,10,16,05,12,5.20
2015,10,16,05,13,5.20
2015,10,16,05,14,5.20
2015,10,16,05,15,5.20
2015,10,16,05,16,5.20
2015,10,16,05,17,5.20
2015,10,16,05,18,5.20
2015,10,16,05,19,5.20
2015,10,16,05,20,5.20
2015,10,16,05,21,5.10
2015,10,16,05,22,5.10
2015,10,16,05,23,5.10
2015,10,16,05,24,5.10
2015,10,16,05,25,5.10
2015,10,16,05,26,5.10
2015,10,16,05,27,5.10
2015,10,16,05,28,5.10
2015,10,16,05,29,5.10
2015,10,16,05,30,5.10
2015,10,16,05,31,5.10
2015,10,16,05,32,5.10
2015,10,16,05,33,5.10
2015,10,16,05,34,5.10
2015,10,16,05,35,5.10
2015,10,16,05,36,5.10
2015,10,16,05,37,5.20
2015,10,16,05,38,5.20
2015,10,16,05,39,5.20
2015,10,16,05,40,5.20
2015,10,16,05,41,5.20
2015,10,16,05,42,5.20
2015,10,16,05,43,5.20
2015,10,16,05,44,5.30
2015,10,16,05,45,5.20
2015,10,16,05,46,5.20
2015,10,16,05,47,5.20
2015,10,16,05,48,5.20
2015,10,16,05,49,5.10
2015,10,16,05,50,5.10
2015,10,16,05,51,5.00
2015,10,16,05,52,4.90
2015,10,16,05,53,4.90
2015,10,16,05,54,4.90
2015,10,16,05,55,4.90
2015,10,16,05,56,4.90
2015,10,16,05,57,4.90
2015,10,16,05,58,4.90
2015,10,16,05,59,4.90
2015,10,16,06,00,4.90
2015,10,16,06,01,5.00
2015,10,16,06,02,5.00
2015,10,16,06,03,5.00
2015,10,16,06,04,5.00
2015,10,16,06,05,5.00
2015,10,16,06,06,5.10
2015,10,16,06,07,5.10
2015,10,16,06,08,5.10
2015,10,16,06,09,5.10
2015,10,16,06,10,5.10
2015,10,16,06,11,5.10
2015,10,16,06,12,5.10
2015,10,16,06,13,5.10
2015,10,16,06,14,5.10
2015,10,16,06,15,5.10
2015,10,16,06,16,5.00
2015,10,16,06,17,5.00
2015,10,16,06,18,4.90
2015,10,16,06,19,4.90
2015,10,16,06,20,4.90
2015,10,16,06,21,4.90
2015,10,16,06,22,4.80
2015,10,16,06,23,4.80
2015,10,16,06,24,4.80
2015,10,16,06,25,4.80
2015,10,16,06,26,4.70
2015,10,16,06,27,4.70
2015,10,16,06,28,4.70
2015,10,16,06,29,4.70
2015,10,16,06,30,4.70
2015,10,16,06,31,4.70
2015,10,16,06,32,4.70
2015,10,16,06,33,4.70
2015,10,16,06,34,4.70
2015,10,16,06,35,4.70
2015,10,16,06,36,4.70
2015,10,16,06,37,4.70
2015,10,16,06,38,4.70
2015,10,16,06,39,4.70
2015,10,16,06,40,4.70
2015,10,16,06,41,4.70
2015,10,16,06,42,4.70
2015,10,16,06,43,4.70
2015,10,16,06,44,4.70
2015,10,16,06,45,4.60
2015,10,16,06,46,4.60
2015,10,16,06,47,4.60
2015,10,16,06,48,4.60
2015,10,16,06,49,4.60
2015,10,16,06,50,4.60
2015,10,16,06,51,4.60
2015,10,16,06,52,4.60
2015,10,16,06,53,4.60
2015,10,16,06,54,4.70
2015,10,16,06,55,4.70
2015,10,16,06,56,4.70
2015,10,16,06,57,4.70
2015,10,16,06,58,4.70
2015,10,16,06,59,4.60
2015,10,16,07,00,4.60
2015,10,16,07,01,4.60
2015,10,16,07,02,4.50
2015,10,16,07,03,4.50
2015,10,16,07,04,4.50
2015,10,16,07,05,4.40
2015,10,16,07,06,4.40
2015,10,16,07,07,4.40
2015,10,16,07,08,4.40
2015,10,16,07,09,4.40
2015,10,16,07,10,4.40
2015,10,16,07,11,4.40
2015,10,16,07,12,4.40
2015,10,16,07,13,4.40
2015,10,16,07,14,4.50
2015,10,16,07,15,4.50
2015,10,16,07,16,4.50
2015,10,16,07,17,4.50
2015,10,16,07,18,4.50
2015,10,16,07,19,4.50
2015,10,16,07,20,4.60
2015,10,16,07,21,4.60
2015,10,16,07,22,4.60
2015,10,16,07,23,4.60
2015,10,16,07,24,4.60
2015,10,16,07,25,4.60
2015,10,16,07,26,4.60
2015,10,16,07,27,4.60
2015,10,16,07,28,4.60
2015,10,16,07,29,4.60
2015,10,16,07,30,4.60
2015,10,16,07,31,4.60
2015,10,16,07,32,4.60
2015,10,16,07,33,4.60
2015,10,16,07,34,4.60
2015,10,16,07,35,4.60
2015,10,16,07,36,4.60
2015,10,16,07,37,4.60
2015,10,16,07,38,4.60
2015,10,16,07,39,4.60
2015,10,16,07,40,4.60
2015,10,16,07,41,4.60
2015,10,16,07,42,4.70
2015,10,16,07,43,4.70
2015,10,16,07,44,4.60
2015,10,16,07,45,4.50
2015,10,16,07,46,4.50
2015,10,16,07,47,4.40
2015,10,16,07,48,4.40
2015,10,16,07,49,4.40
2015,10,16,07,50,4.40
2015,10,16,07,51,4.40
2015,10,16,07,52,4.40
2015,10,16,07,53,4.40
2015,10,16,07,54,4.40
2015,10,16,07,55,4.50
2015,10,16,07,56,4.50
2015,10,16,07,57,4.50
2015,10,16,07,58,4.60
2015,10,16,07,59,4.60
2015,10,16,08,00,4.60
2015,10,16,08,01,4.60
2015,10,16,08,02,4.60
2015,10,16,08,03,4.60
2015,10,16,08,04,4.60
2015,10,16,08,05,4.70
2015,10,16,08,06,4.70
2015,10,16,08,07,4.70
2015,10,16,08,08,4.70
2015,10,16,08,09,4.60
2015,10,16,08,10,4.60
2015,10,16,08,11,4.60
2015,10,16,08,12,4.60
2015,10,16,08,13,4.70
2015,10,16,08,14,4.70
2015,10,16,08,15,4.70
2015,10,16,08,16,4.70
2015,10,16,08,17,4.70
2015,10,16,08,18,4.70
2015,10,16,08,19,4.70
2015,10,16,08,20,4.70
2015,10,16,08,21,4.80
2015,10,16,08,22,4.80
2015,10,16,08,23,4.80
2015,10,16,08,24,4.80
2015,10,16,08,25,4.80
2015,10,16,08,26,4.80
2015,10,16,08,27,4.80
2015,10,16,08,28,4.80
2015,10,16,08,29,4.80
2015,10,16,08,30,4.80
2015,10,16,08,31,4.80
2015,10,16,08,32,4.80
2015,10,16,08,33,4.90
2015,10,16,08,34,4.90
2015,10,16,08,35,4.90
2015,10,16,08,36,5.00
2015,10,16,08,37,5.00
2015,10,16,08,38,5.00
2015,10,16,08,39,5.10
2015,10,16,08,40,5.10
2015,10,16,08,41,5.10
2015,10,16,08,42,5.20
2015,10,16,08,43,5.20
2015,10,16,08,44,5.20
2015,10,16,08,45,5.20
2015,10,16,08,46,5.20
2015,10,16,08,47,5.30
2015,10,16,08,48,5.30
2015,10,16,08,49,5.30
2015,10,16,08,50,5.30
2015,10,16,08,51,5.30
2015,10,16,08,52,5.40
2015,10,16,08,53,5.40
2015,10,16,08,54,5.40
2015,10,16,08,55,5.50
2015,10,16,08,56,5.50
2015,10,16,08,57,5.60
2015,10,16,08,58,5.60
2015,10,16,08,59,5.70
2015,10,16,09,00,5.70
2015,10,16,09,01,5.70
2015,10,16,09,02,5.80
2015,10,16,09,03,5.80
2015,10,16,09,04,5.90
2015,10,16,09,05,6.00
2015,10,16,09,06,6.00
2015,10,16,09,07,6.10
2015,10,16,09,08,6.10
2015,10,16,09,09,6.20
2015,10,16,09,10,6.20
2015,10,16,09,11,6.30
2015,10,16,09,12,6.40
2015,10,16,09,13,6.40
2015,10,16,09,14,6.50
2015,10,16,09,15,6.60
2015,10,16,09,16,6.60
2015,10,16,09,17,6.70
2015,10,16,09,18,6.70
2015,10,16,09,19,6.80
2015,10,16,09,20,6.90
2015,10,16,09,21,7.00
2015,10,16,09,22,7.00
2015,10,16,09,23,7.00
2015,10,16,09,24,7.10
2015,10,16,09,25,7.10
2015,10,16,09,26,7.20
2015,10,16,09,27,7.20
2015,10,16,09,28,7.30
2015,10,16,09,29,7.30
2015,10,16,09,30,7.40
2015,10,16,09,31,7.40
2015,10,16,09,32,7.50
2015,10,16,09,33,7.50
2015,10,16,09,34,7.50
2015,10,16,09,35,7.60
2015,10,16,09,36,7.60
2015,10,16,09,37,7.60
2015,10,16,09,38,7.60
2015,10,16,09,39,7.70
2015,10,16,09,40,7.70
2015,10,16,09,41,7.80
2015,10,16,09,42,7.80
2015,10,16,09,43,7.90
2015,10,16,09,44,8.00
2015,10,16,09,45,8.20
2015,10,16,09,46,8.20
2015,10,16,09,47,8.30
2015,10,16,09,48,8.40
2015,10,16,09,49,8.50
2015,10,16,09,50,8.50
2015,10,16,09,51,8.60
2015,10,16,09,52,8.70
2015,10,16,09,53,8.80
2015,10,16,09,54,8.80
2015,10,16,09,55,8.90
2015,10,16,09,56,9.00
2015,10,16,09,57,9.10
2015,10,16,09,58,9.20
2015,10,16,09,59,9.30
2015,10,16,10,00,9.30
2015,10,16,10,01,9.40
2015,10,16,10,02,9.40
2015,10,16,10,03,9.50
2015,10,16,10,04,9.60
2015,10,16,10,05,9.70
2015,10,16,10,06,9.70
2015,10,16,10,07,9.80
2015,10,16,10,08,9.90
2015,10,16,10,09,10.00
2015,10,16,10,10,10.00
2015,10,16,10,11,10.10
2015,10,16,10,12,10.20
2015,10,16,10,13,10.20
2015,10,16,10,14,10.30
2015,10,16,10,15,10.40
2015,10,16,10,16,10.50
2015,10,16,10,17,10.60
2015,10,16,10,18,10.70
2015,10,16,10,19,10.80
2015,10,16,10,20,10.90
2015,10,16,10,21,11.00
2015,10,16,10,22,11.20
2015,10,16,10,23,11.30
2015,10,16,10,24,11.40
2015,10,16,10,25,11.50
2015,10,16,10,26,11.60
2015,10,16,10,27,11.70
2015,10,16,10,28,11.80
2015,10,16,10,29,11.90
2015,10,16,10,30,12.00
2015,10,16,10,31,12.10
2015,10,16,10,32,12.30
2015,10,16,10,33,12.40
2015,10,16,10,34,12.60
2015,10,16,10,35,12.70
2015,10,16,10,36,12.80
2015,10,16,10,37,12.90
2015,10,16,10,38,13.00
2015,10,16,10,39,13.10
2015,10,16,10,40,13.10
2015,10,16,10,41,13.20
2015,10,16,10,42,13.20
2015,10,16,10,43,13.30
2015,10,16,10,44,13.30
2015,10,16,10,45,13.40
2015,10,16,10,46,13.50
2015,10,16,10,47,13.50
2015,10,16,10,48,13.60
2015,10,16,10,49,13.70
2015,10,16,10,50,13.70
2015,10,16,10,51,13.70
2015,10,16,10,52,13.70
2015,10,16,10,53,13.80
2015,10,16,10,54,13.80
2015,10,16,10,55,13.80
2015,10,16,10,56,13.80
2015,10,16,10,57,13.80
2015,10,16,10,58,13.90
2015,10,16,10,59,13.90
2015,10,16,11,00,14.00
2015,10,16,11,01,14.00
2015,10,16,11,02,14.10
2015,10,16,11,03,14.10
2015,10,16,11,04,14.20
2015,10,16,11,05,14.20
2015,10,16,11,06,14.30
2015,10,16,11,07,14.40
2015,10,16,11,08,14.50
2015,10,16,11,09,14.60
2015,10,16,11,10,14.70
2015,10,16,11,11,14.80
2015,10,16,11,12,14.90
2015,10,16,11,13,14.90
2015,10,16,11,14,15.00
2015,10,16,11,15,15.10
2015,10,16,11,16,15.20
2015,10,16,11,17,15.40
2015,10,16,11,18,15.50
2015,10,16,11,19,15.60
2015,10,16,11,20,15.70
2015,10,16,11,21,15.80
2015,10,16,11,22,15.90
2015,10,16,11,23,16.00
2015,10,16,11,24,16.10
2015,10,16,11,25,16.10
2015,10,16,11,26,16.10
2015,10,16,11,27,16.10
2015,10,16,11,28,16.20
2015,10,16,11,29,16.20
2015,10,16,11,30,16.30
2015,10,16,11,31,16.40
2015,10,16,11,32,16.50
2015,10,16,11,33,16.60
2015,10,16,11,34,16.70
2015,10,16,11,35,16.80
2015,10,16,11,36,16.80
2015,10,16,11,37,16.80
2015,10,16,11,38,16.80
2015,10,16,11,39,16.90
2015,10,16,11,40,16.90
2015,10,16,11,41,16.90
2015,10,16,11,42,17.00
2015,10,16,11,43,17.10
2015,10,16,11,44,17.10
2015,10,16,11,45,17.20
2015,10,16,11,46,17.30
2015,10,16,11,47,17.30
2015,10,16,11,48,17.40
2015,10,16,11,49,17.50
2015,10,16,11,50,17.60
2015,10,16,11,51,17.70
2015,10,16,11,52,17.70
2015,10,16,11,53,17.80
2015,10,16,11,54,17.80
2015,10,16,11,55,17.80
2015,10,16,11,56,17.90
2015,10,16,11,57,17.90
2015,10,16,11,58,17.90
2015,10,16,11,59,18.00
2015,10,16,12,00,18.00
2015,10,16,12,01,18.10
2015,10,16,12,02,18.10
2015,10,16,12,03,18.20
2015,10,16,12,04,18.30
2015,10,16,12,05,18.30
2015,10,16,12,06,18.30
2015,10,16,12,07,18.30
2015,10,16,12,08,18.30
2015,10,16,12,09,18.30
2015,10,16,12,10,18.40
2015,10,16,12,11,18.40
2015,10,16,12,12,18.40
2015,10,16,12,13,18.50
2015,10,16,12,14,18.60
2015,10,16,12,15,18.60
2015,10,16,12,16,18.60
2015,10,16,12,17,18.70
2015,10,16,12,18,18.80
2015,10,16,12,19,18.90
2015,10,16,12,20,18.90
2015,10,16,12,21,19.00
2015,10,16,12,22,19.10
2015,10,16,12,23,19.20
2015,10,16,12,24,19.20
2015,10,16,12,25,19.30
2015,10,16,12,26,19.40
2015,10,16,12,27,19.40
2015,10,16,12,28,19.50
2015,10,16,12,29,19.60
2015,10,16,12,30,19.70
2015,10,16,12,31,19.70
2015,10,16,12,32,19.80
2015,10,16,12,33,19.90
2015,10,16,12,34,19.90
2015,10,16,12,35,20.00
2015,10,16,12,36,20.00
2015,10,16,12,37,20.10
2015,10,16,12,38,20.10
2015,10,16,12,39,20.20
2015,10,16,12,40,20.20
2015,10,16,12,41,20.30
2015,10,16,12,42,20.30
2015,10,16,12,43,20.40
2015,10,16,12,44,20.40
2015,10,16,12,45,20.50
2015,10,16,12,46,20.60
2015,10,16,12,47,20.60
2015,10,16,12,48,20.70
2015,10,16,12,49,20.80
2015,10,16,12,50,20.80
2015,10,16,12,51,20.90
2015,10,16,12,52,20.90
2015,10,16,12,53,21.00
2015,10,16,12,54,21.00
2015,10,16,12,55,21.10
2015,10,16,12,56,21.20
2015,10,16,12,57,21.20
2015,10,16,12,58,21.30
2015,10,16,12,59,21.30
2015,10,16,13,00,21.30
2015,10,16,13,01,21.40
2015,10,16,13,02,21.40
2015,10,16,13,03,21.40
2015,10,16,13,04,21.50
2015,10,16,13,05,21.60
2015,10,16,13,06,21.60
2015,10,16,13,07,21.70
2015,10,16,13,08,21.70
2015,10,16,13,09,21.80
2015,10,16,13,10,21.80
2015,10,16,13,11,21.80
2015,10,16,13,12,21.80
2015,10,16,13,13,21.80
2015,10,16,13,14,21.90
2015,10,16,13,15,21.90
2015,10,16,13,16,22.00
2015,10,16,13,17,22.00
2015,10,16,13,18,22.10
2015,10,16,13,19,22.10
2015,10,16,13,20,22.10
2015,10,16,13,21,22.20
2015,10,16,13,22,22.20
2015,10,16,13,23,22.20
2015,10,16,13,24,22.30
2015,10,16,13,25,22.40
2015,10,16,13,26,22.40
2015,10,16,13,27,22.50
2015,10,16,13,28,22.60
2015,10,16,13,29,22.70
2015,10,16,13,30,22.80
2015,10,16,13,31,22.80
2015,10,16,13,32,22.80
2015,10,16,13,33,22.90
2015,10,16,13,34,23.00
2015,10,16,13,35,23.10
2015,10,16,13,36,23.20
2015,10,16,13,37,23.30
2015,10,16,13,38,23.30
2015,10,16,13,39,23.30
2015,10,16,13,40,23.20
2015,10,16,13,41,23.10
2015,10,16,13,42,23.10
2015,10,16,13,43,23.10
2015,10,16,13,44,23.10
2015,10,16,13,45,23.10
2015,10,16,13,46,23.00
2015,10,16,13,47,22.90
2015,10,16,13,48,22.90
2015,10,16,13,49,22.90
2015,10,16,13,50,22.90
2015,10,16,13,51,23.00
2015,10,16,13,52,23.00
2015,10,16,13,53,23.10
2015,10,16,13,54,23.10
2015,10,16,13,55,23.10
2015,10,16,13,56,23.10
2015,10,16,13,57,23.10
2015,10,16,13,58,23.10
2015,10,16,13,59,23.20
2015,10,16,14,00,23.30
2015,10,16,14,01,23.40
2015,10,16,14,02,23.40
2015,10,16,14,03,23.50
2015,10,16,14,04,23.50
2015,10,16,14,05,23.60
2015,10,16,14,06,23.60
2015,10,16,14,07,23.60
2015,10,16,14,08,23.60
2015,10,16,14,09,23.60
2015,10,16,14,10,23.60
2015,10,16,14,11,23.70
2015,10,16,14,12,23.70
2015,10,16,14,13,23.70
2015,10,16,14,14,23.60
2015,10,16,14,15,23.60
2015,10,16,14,16,23.60
2015,10,16,14,17,23.60
2015,10,16,14,18,23.70
2015,10,16,14,19,23.70
2015,10,16,14,20,23.60
2015,10,16,14,21,23.60
2015,10,16,14,22,23.60
2015,10,16,14,23,23.60
2015,10,16,14,24,23.60
2015,10,16,14,25,23.70
2015,10,16,14,26,23.80
2015,10,16,14,27,23.80
2015,10,16,14,28,23.90
2015,10,16,14,29,23.80
2015,10,16,14,30,23.80
2015,10,16,14,31,23.80
2015,10,16,14,32,23.70
2015,10,16,14,33,23.80
2015,10,16,14,34,23.80
2015,10,16,14,35,23.80
2015,10,16,14,36,23.80
2015,10,16,14,37,23.80
2015,10,16,14,38,23.90
2015,10,16,14,39,23.90
2015,10,16,14,40,24.00
2015,10,16,14,41,24.00
2015,10,16,14,42,24.10
2015,10,16,14,43,24.10
2015,10,16,14,44,24.00
2015,10,16,14,45,23.90
2015,10,16,14,46,23.80
2015,10,16,14,47,23.80
2015,10,16,14,48,23.80
2015,10,16,14,49,23.70
2015,10,16,14,50,23.70
2015,10,16,14,51,23.70
2015,10,16,14,52,23.70
2015,10,16,14,53,23.70
2015,10,16,14,54,23.70
2015,10,16,14,55,23.80
2015,10,16,14,56,23.80
2015,10,16,14,57,23.80
2015,10,16,14,58,23.80
2015,10,16,14,59,23.80
2015,10,16,15,00,23.80
2015,10,16,15,01,23.80
2015,10,16,15,02,23.80
2015,10,16,15,03,23.80
2015,10,16,15,04,23.80
2015,10,16,15,05,23.80
2015,10,16,15,06,23.80
2015,10,16,15,07,23.70
2015,10,16,15,08,23.70
2015,10,16,15,09,23.70
2015,10,16,15,10,23.60
2015,10,16,15,11,23.60
2015,10,16,15,12,23.50
2015,10,16,15,13,23.40
2015,10,16,15,14,23.40
2015,10,16,15,15,23.40
2015,10,16,15,16,23.40
2015,10,16,15,17,23.40
2015,10,16,15,18,23.50
2015,10,16,15,19,23.50
2015,10,16,15,20,23.60
2015,10,16,15,21,23.60
2015,10,16,15,22,23.70
2015,10,16,15,23,23.70
2015,10,16,15,24,23.70
2015,10,16,15,25,23.70
2015,10,16,15,26,23.80
2015,10,16,15,27,23.70
2015,10,16,15,28,23.70
2015,10,16,15,29,23.70
2015,10,16,15,30,23.70
2015,10,16,15,31,23.70
2015,10,16,15,32,23.60
2015,10,16,15,33,23.50
2015,10,16,15,34,23.50
2015,10,16,15,35,23.40
2015,10,16,15,36,23.40
2015,10,16,15,37,23.40
2015,10,16,15,38,23.40
2015,10,16,15,39,23.40
2015,10,16,15,40,23.40
2015,10,16,15,41,23.40
2015,10,16,15,42,23.40
2015,10,16,15,43,23.40
2015,10,16,15,44,23.40
2015,10,16,15,45,23.30
2015,10,16,15,46,23.40
2015,10,16,15,47,23.40
2015,10,16,15,48,23.40
2015,10,16,15,49,23.40
2015,10,16,15,50,23.40
2015,10,16,15,51,23.40
2015,10,16,15,52,23.30
2015,10,16,15,53,23.30
2015,10,16,15,54,23.30
2015,10,16,15,55,23.30
2015,10,16,15,56,23.30
2015,10,16,15,57,23.40
2015,10,16,15,58,23.40
2015,10,16,15,59,23.40
2015,10,16,16,00,23.40
2015,10,16,16,01,23.50
2015,10,16,16,02,23.50
2015,10,16,16,03,23.50
2015,10,16,16,04,23.40
2015,10,16,16,05,23.30
2015,10,16,16,06,23.30
2015,10,16,16,07,23.20
2015,10,16,16,08,23.20
2015,10,16,16,09,23.10
2015,10,16,16,10,23.10
2015,10,16,16,11,23.10
2015,10,16,16,12,23.00
2015,10,16,16,13,23.00
2015,10,16,16,14,22.90
2015,10,16,16,15,22.90
2015,10,16,16,16,22.80
2015,10,16,16,17,22.80
2015,10,16,16,18,22.70
2015,10,16,16,19,22.60
2015,10,16,16,20,22.50
2015,10,16,16,21,22.40
2015,10,16,16,22,22.30
2015,10,16,16,23,22.30
2015,10,16,16,24,22.20
2015,10,16,16,25,22.10
2015,10,16,16,26,22.00
2015,10,16,16,27,21.90
2015,10,16,16,28,21.80
2015,10,16,16,29,21.70
2015,10,16,16,30,21.70
2015,10,16,16,31,21.70
2015,10,16,16,32,21.60
2015,10,16,16,33,21.60
2015,10,16,16,34,21.70
2015,10,16,16,35,21.70
2015,10,16,16,36,21.70
2015,10,16,16,37,21.70
2015,10,16,16,38,21.70
2015,10,16,16,39,21.70
2015,10,16,16,40,21.70
2015,10,16,16,41,21.70
2015,10,16,16,42,21.60
2015,10,16,16,43,21.70
2015,10,16,16,44,21.60
2015,10,16,16,45,21.60
2015,10,16,16,46,21.50
2015,10,16,16,47,21.50
2015,10,16,16,48,21.40
2015,10,16,16,49,21.30
2015,10,16,16,50,21.20
2015,10,16,16,51,21.20
2015,10,16,16,52,21.10
2015,10,16,16,53,21.10
2015,10,16,16,54,21.10
2015,10,16,16,55,21.00
2015,10,16,16,56,21.00
2015,10,16,16,57,20.90
2015,10,16,16,58,20.90
2015,10,16,16,59,20.80
2015,10,16,17,00,20.70
2015,10,16,17,01,20.70
2015,10,16,17,02,20.60
2015,10,16,17,03,20.50
2015,10,16,17,04,20.50
2015,10,16,17,05,20.40
2015,10,16,17,06,20.40
2015,10,16,17,07,20.30
2015,10,16,17,08,20.30
2015,10,16,17,09,20.30
2015,10,16,17,10,20.20
2015,10,16,17,11,20.20
2015,10,16,17,12,20.20
2015,10,16,17,13,20.20
2015,10,16,17,14,20.20
2015,10,16,17,15,20.10
2015,10,16,17,16,20.10
2015,10,16,17,17,20.10
2015,10,16,17,18,20.10
2015,10,16,17,19,20.10
2015,10,16,17,20,20.10
2015,10,16,17,21,20.10
2015,10,16,17,22,20.10
2015,10,16,17,23,20.10
2015,10,16,17,24,20.10
2015,10,16,17,25,20.10
2015,10,16,17,26,20.00
2015,10,16,17,27,20.00
2015,10,16,17,28,19.90
2015,10,16,17,29,19.90
2015,10,16,17,30,19.90
2015,10,16,17,31,19.90
2015,10,16,17,32,19.90
2015,10,16,17,33,19.90
2015,10,16,17,34,19.80
2015,10,16,17,35,19.80
2015,10,16,17,36,19.80
2015,10,16,17,37,19.80
2015,10,16,17,38,19.80
2015,10,16,17,39,19.80
2015,10,16,17,40,19.70
2015,10,16,17,41,19.70
2015,10,16,17,42,19.60
2015,10,16,17,43,19.50
2015,10,16,17,44,19.50
2015,10,16,17,45,19.40